Location: Pinhey's Point
(45.4411°N, 75.9539°W)
Time: 05:19:13
(UTC-04:00)

Iridium 65 - Visible Passes

Search period start: 26 March 2017 00:00
Search period end: 05 April 2017 00:00
Orbit: 776 x 779 km, 86.4° (Epoch: 24 March)

Date Brightness Start Highest point End Pass type
(mag) Time Alt. Az. Time Alt. Az. Time Alt. Az.
26 Mar 8.7 04:32:21 10° E 04:33:54 11° ENE 04:35:27 10° NE visible
26 Mar 5.6 06:08:32 10° S 06:13:45 87° E 06:19:00 10° N visible
27 Mar 6.6 05:35:18 10° SSE 05:40:18 49° E 05:45:19 10° NNE visible
28 Mar 7.6 05:02:36 10° SE 05:06:58 28° E 05:11:21 10° NNE visible
29 Mar 8.4 04:30:39 10° ESE 04:33:46 16° ENE 04:36:54 10° NE visible
29 Mar 5.5 06:08:42 10° SSW 06:13:52 67° W 06:19:06 10° N visible
30 Mar 5.9 05:35:11 10° S 05:40:21 70° E 05:45:34 10° N visible
31 Mar 7.0 05:02:09 10° SSE 05:06:57 39° E 05:11:47 10° NNE visible
01 Apr 7.9 04:29:42 10° SE 04:33:41 23° E 04:37:40 10° NNE visible
01 Apr 5.8 06:09:02 10° SSW 06:14:03 47° W 06:19:06 10° N visible
02 Apr 8.4 03:58:16 10° E 04:00:31 13° ENE 04:02:47 10° NE visible
02 Apr 5.5 05:35:14 10° S 05:40:27 84° W 05:45:43 10° N visible
03 Apr 6.3 05:01:55 10° SSE 05:06:59 55° E 05:12:05 10° NNE visible
04 Apr 7.3 04:29:05 10° SE 04:33:38 31° E 04:38:11 10° NNE visible
